Location: Unspecified
(38.9820°N, 94.4650°W)
Time: 04:50:01
(UTC-05:00)

HST - Visible Passes

Search period start: 31 October 2014 00:00
Search period end: 09 November 2014 23:00
Orbit: 546 x 550 km, 28.5° (Epoch: 30 October)

Date Brightness Start Highest point End Pass type
(mag) Time Alt. Az. Time Alt. Az. Time Alt. Az.
31 Oct 2.9 19:02:21 10° SW 19:05:22 19° S 19:08:23 10° SE visible
31 Oct 3.4 20:43:49 10° SW 20:45:03 13° SSW 20:45:03 13° SSW visible
01 Nov 3.0 18:54:56 10° SW 18:57:55 19° S 19:00:54 10° SE visible
01 Nov 3.4 20:36:51 10° SW 20:38:13 12° SSW 20:38:13 12° SSW visible
02 Nov 3.1 17:47:33 10° SW 17:50:27 18° S 17:53:21 10° SE visible
02 Nov 3.5 19:30:26 10° SSW 19:31:08 10° SSW 19:31:27 10° SSW visible
03 Nov 3.2 17:40:14 10° SW 17:42:58 17° S 17:45:43 10° SSE visible
